ARKSAT 1

Last updated on Mon Oct 30 2023 00:02:07 GMT+0000 (Coordinated Universal Time)

1 56311U 98067VC 23302.56502236 .04803933 12096-4 13234-2 0 9992 2 56311 51.6149 358.8108 0007319 351.2507 8.8385 16.27130243 29507

Satellite not in orbit